Time,TemperatureF,DewpointF,PressureIn,WindDirection,WindDirectionDegrees,WindSpeedMPH,WindSpeedGustMPH,Humidity,HourlyPrecipIn,Conditions,Clouds,dailyrainin,SolarRadiationWatts/m^2,SoftwareType,DateUTC
2013-09-10 00:07:00,49.8,43.8,30.07,South,178,0.0,1.0,80,0.00,CLR,FEW,0.00,0.0,WeatherDisplay:10.37,2013-09-10 04:07:00,
2013-09-10 00:17:00,50.5,43.9,30.07,South,178,0.0,0.0,78,0.00,CLR,FEW,0.00,0.0,WeatherDisplay:10.37,2013-09-10 04:17:00,
2013-09-10 00:22:00,50.6,43.6,30.07,South,178,0.0,0.0,77,0.00,CLR,FEW,0.00,0.0,WeatherDisplay:10.37,2013-09-10 04:22:00,
2013-09-10 00:42:00,50.2,44.6,30.07,South,178,0.0,1.0,81,0.00,CLR,FEW,0.00,0.0,WeatherDisplay:10.37,2013-09-10 04:42:00,
2013-09-10 00:47:00,50.0,44.4,30.07,South,178,0.0,0.0,81,0.00,CLR,FEW,0.00,0.0,WeatherDisplay:10.37,2013-09-10 04:47:00,
2013-09-10 00:52:00,49.9,44.6,30.07,South,178,0.0,0.0,82,0.00,CLR,FEW,0.00,0.0,WeatherDisplay:10.37,2013-09-10 04:52:00,
2013-09-10 00:57:00,49.9,44.9,30.07,South,178,0.0,0.0,83,0.00,CLR,FEW,0.00,0.0,WeatherDisplay:10.37,2013-09-10 04:57:00,
2013-09-10 01:22:00,49.4,45.7,30.07,South,178,0.0,0.0,87,0.00,CLR,FEW,0.00,0.0,WeatherDisplay:10.37,2013-09-10 05:22:00,
2013-09-10 01:37:00,49.1,46.0,30.08,South,178,0.0,1.0,89,0.00,CLR,FEW,0.00,0.0,WeatherDisplay:10.37,2013-09-10 05:37:00,
2013-09-10 01:57:00,49.5,45.2,30.07,South,178,0.0,0.0,85,0.00,CLR,FEW,0.00,0.0,WeatherDisplay:10.37,2013-09-10 05:57:00,
2013-09-10 02:37:00,49.0,45.0,30.06,South,178,0.0,1.0,86,0.00,CLR,FEW,0.00,0.0,WeatherDisplay:10.37,2013-09-10 06:37:00,
2013-09-10 02:52:00,48.7,44.4,30.06,South,178,0.0,0.0,85,0.00,CLR,FEW,0.00,0.0,WeatherDisplay:10.37,2013-09-10 06:52:00,
2013-09-10 03:07:00,48.4,44.4,30.06,South,178,0.0,0.0,86,0.00,CLR,FEW,0.00,0.0,WeatherDisplay:10.37,2013-09-10 07:07:00,
2013-09-10 03:27:00,48.2,44.2,30.06,South,178,0.0,1.0,86,0.00,CLR,FEW,0.00,0.0,WeatherDisplay:10.37,2013-09-10 07:27:00,
2013-09-10 03:32:00,48.2,44.2,30.06,South,178,0.0,1.0,86,0.00,CLR,FEW,0.00,0.0,WeatherDisplay:10.37,2013-09-10 07:32:00,
2013-09-10 03:37:00,48.3,44.6,30.06,South,178,0.0,1.0,87,0.00,CLR,FEW,0.00,0.0,WeatherDisplay:10.37,2013-09-10 07:37:00,
2013-09-10 03:52:00,48.4,45.3,30.05,South,178,0.0,0.0,89,0.00,CLR,FEW,0.00,0.0,WeatherDisplay:10.37,2013-09-10 07:52:00,
2013-09-10 04:07:00,48.2,45.7,30.04,South,178,0.0,0.0,91,0.00,CLR,FEW,0.00,0.0,WeatherDisplay:10.37,2013-09-10 08:07:00,
2013-09-10 04:43:00,48.4,45.9,30.04,South,178,0.0,0.0,91,0.00,CLR,FEW,0.00,0.0,WeatherDisplay:10.37,2013-09-10 08:43:00,
2013-09-10 04:52:00,48.5,46.0,30.04,South,178,0.0,0.0,91,0.00,CLR,FEW,0.00,0.0,WeatherDisplay:10.37,2013-09-10 08:52:00,
2013-09-10 05:22:00,48.7,46.5,30.04,South,178,0.0,0.0,92,0.00,CLR,FEW,0.00,0.0,WeatherDisplay:10.37,2013-09-10 09:22:00,
2013-09-10 05:32:00,48.8,46.6,30.03,South,178,0.0,0.0,92,0.00,CLR,FEW,0.00,0.0,WeatherDisplay:10.37,2013-09-10 09:32:00,
2013-09-10 05:42:00,48.7,45.9,30.03,South,178,0.0,0.0,90,0.00,CLR,FEW,0.00,0.0,WeatherDisplay:10.37,2013-09-10 09:42:00,
2013-09-10 05:57:00,48.8,46.0,30.02,South,178,0.0,0.0,90,0.00,CLR,FEW,0.00,0.0,WeatherDisplay:10.37,2013-09-10 09:57:00,
2013-09-10 06:07:00,49.0,46.5,30.01,South,178,0.0,0.0,91,0.00,FEW,FEW,0.00,0.0,WeatherDisplay:10.37,2013-09-10 10:07:00,
2013-09-10 06:27:00,49.3,47.1,30.02,South,178,0.0,0.0,92,0.00,FEW,FEW,0.00,0.0,WeatherDisplay:10.37,2013-09-10 10:27:00,
2013-09-10 06:32:00,49.3,47.1,30.01,South,178,0.0,0.0,92,0.00,FEW,FEW,0.00,0.0,WeatherDisplay:10.37,2013-09-10 10:32:00,
2013-09-10 06:42:00,49.6,46.5,30.02,South,178,0.0,0.0,89,0.00,FEW,FEW,0.00,9.0,WeatherDisplay:10.37,2013-09-10 10:42:00,
2013-09-10 06:57:00,50.4,47.3,30.02,South,178,0.0,0.0,89,0.00,FEW,FEW,0.00,14.0,WeatherDisplay:10.37,2013-09-10 10:57:00,
2013-09-10 07:37:00,50.8,47.7,30.02,South,178,0.0,0.0,89,0.00,OVC,FEW,0.00,37.0,WeatherDisplay:10.37,2013-09-10 11:37:00,
2013-09-10 07:57:00,51.3,47.6,30.02,South,178,0.0,0.0,87,0.00,OVC,FEW,0.00,58.0,WeatherDisplay:10.37,2013-09-10 11:57:00,
2013-09-10 08:37:00,51.7,49.7,30.03,South,178,0.0,0.0,93,0.00,OVC,FEW,0.00,47.0,WeatherDisplay:10.37,2013-09-10 12:37:00,
2013-09-10 08:47:00,51.4,49.8,30.03,South,178,0.0,0.0,94,0.00,OVC,FEW,0.00,97.0,WeatherDisplay:10.37,2013-09-10 12:47:00,
2013-09-10 08:52:00,51.5,50.1,30.03,South,178,0.0,0.0,95,0.01,RA,FEW,0.01,63.0,WeatherDisplay:10.37,2013-09-10 12:52:00,
2013-09-10 09:27:00,52.4,51.3,30.02,South,178,0.0,1.0,96,0.00,OVC,FEW,0.01,98.0,WeatherDisplay:10.37,2013-09-10 13:27:00,
2013-09-10 09:37:00,52.7,51.6,30.01,South,177,0.0,1.0,96,0.00,OVC,FEW,0.01,93.0,WeatherDisplay:10.37,2013-09-10 13:37:00,
2013-09-10 09:47:00,52.9,51.5,30.01,South,173,1.0,3.0,95,0.00,OVC,FEW,0.01,127.0,WeatherDisplay:10.37,2013-09-10 13:47:00,
2013-09-10 09:52:00,53.0,51.6,30.01,South,169,0.0,1.0,95,0.00,OVC,FEW,0.01,97.0,WeatherDisplay:10.37,2013-09-10 13:52:00,
2013-09-10 10:07:00,53.2,51.5,30.01,SSE,167,1.0,2.0,94,0.00,OVC,FEW,0.01,98.0,WeatherDisplay:10.37,2013-09-10 14:07:00,
2013-09-10 10:27:00,53.5,52.1,30.01,SSE,159,0.0,3.0,95,0.00,OVC,FEW,0.01,83.0,WeatherDisplay:10.37,2013-09-10 14:27:00,
2013-09-10 10:44:00,53.8,52.1,30.01,SE,143,0.0,3.0,94,0.00,OVC,FEW,0.01,67.0,WeatherDisplay:10.37,2013-09-10 14:44:00,
2013-09-10 11:07:00,54.2,52.5,30.01,SE,133,0.0,3.0,94,0.00,-RA,FEW,0.01,56.0,WeatherDisplay:10.37,2013-09-10 15:07:00,
2013-09-10 11:27:00,54.7,53.0,30.01,SE,136,0.0,3.0,94,0.00,-RA,FEW,0.01,30.0,WeatherDisplay:10.37,2013-09-10 15:27:00,
2013-09-10 11:42:00,54.9,53.2,30.01,SE,139,0.0,1.0,94,0.02,-RA,FEW,0.03,39.0,WeatherDisplay:10.37,2013-09-10 15:42:00,
2013-09-10 11:57:00,54.8,53.1,30.01,SE,140,0.0,2.0,94,0.00,-RA,FEW,0.03,76.0,WeatherDisplay:10.37,2013-09-10 15:57:00,
2013-09-10 12:37:00,55.0,53.9,30.00,SE,142,0.0,2.0,96,0.01,-RA,FEW,0.04,98.0,WeatherDisplay:10.37,2013-09-10 16:37:00,
2013-09-10 12:52:00,55.1,54.2,30.00,SE,142,0.0,1.0,97,0.01,-RA,FEW,0.06,56.0,WeatherDisplay:10.37,2013-09-10 16:52:00,
2013-09-10 12:57:00,55.2,54.3,30.00,SE,142,0.0,1.0,97,0.01,-RA,FEW,0.07,76.0,WeatherDisplay:10.37,2013-09-10 16:57:00,
2013-09-10 13:07:00,55.2,54.3,30.00,SE,142,0.0,1.0,97,0.00,-RA,FEW,0.07,97.0,WeatherDisplay:10.37,2013-09-10 17:07:00,
2013-09-10 13:32:00,55.7,54.9,29.99,SE,142,0.0,3.0,97,0.01,-RA,FEW,0.08,84.0,WeatherDisplay:10.37,2013-09-10 17:32:00,
2013-09-10 13:52:00,55.9,55.1,30.00,SE,141,0.0,3.0,97,0.00,-RA,FEW,0.08,49.0,WeatherDisplay:10.37,2013-09-10 17:52:00,
2013-09-10 13:57:00,56.0,55.1,30.00,SE,142,0.0,0.0,97,0.00,-RA,FEW,0.08,98.0,WeatherDisplay:10.37,2013-09-10 17:57:00,
2013-09-10 14:22:00,56.1,56.1,29.99,SE,142,0.0,0.0,100,0.00,OVC,FEW,0.08,67.0,WeatherDisplay:10.37,2013-09-10 18:22:00,
2013-09-10 14:32:00,56.6,56.6,29.99,SE,142,0.0,1.0,100,0.00,OVC,FEW,0.08,77.0,WeatherDisplay:10.37,2013-09-10 18:32:00,
2013-09-10 14:43:00,56.7,56.7,29.99,SE,141,0.0,1.0,100,0.00,OVC,FEW,0.08,120.0,WeatherDisplay:10.37,2013-09-10 18:43:00,
2013-09-10 14:52:00,57.0,57.0,29.99,SE,142,0.0,1.0,100,0.00,OVC,FEW,0.08,111.0,WeatherDisplay:10.37,2013-09-10 18:52:00,
2013-09-10 15:07:00,57.2,56.4,29.99,SE,141,0.0,2.0,97,0.00,OVC,FEW,0.08,137.0,WeatherDisplay:10.37,2013-09-10 19:07:00,
2013-09-10 15:17:00,57.8,57.8,29.99,SE,142,0.0,1.0,100,0.00,OVC,FEW,0.08,172.0,WeatherDisplay:10.37,2013-09-10 19:17:00,
2013-09-10 15:27:00,58.0,57.2,29.98,SE,141,0.0,1.0,97,0.00,OVC,FEW,0.08,148.0,WeatherDisplay:10.37,2013-09-10 19:27:00,
2013-09-10 15:37:00,58.2,57.3,29.99,SE,141,0.0,0.0,97,0.00,OVC,FEW,0.08,130.0,WeatherDisplay:10.37,2013-09-10 19:37:00,
2013-09-10 15:47:00,58.7,57.8,29.99,SE,141,0.0,0.0,97,0.00,OVC,FEW,0.08,141.0,WeatherDisplay:10.37,2013-09-10 19:47:00,
2013-09-10 15:57:00,59.1,58.3,29.99,SE,142,0.0,1.0,97,0.00,OVC,FEW,0.08,158.0,WeatherDisplay:10.37,2013-09-10 19:57:00,
2013-09-10 16:22:00,60.0,58.9,29.99,SE,142,0.0,1.0,96,0.00,OVC,FEW,0.08,130.0,WeatherDisplay:10.37,2013-09-10 20:22:00,
2013-09-10 16:37:00,60.2,59.1,29.99,SE,142,0.0,1.0,96,0.00,OVC,FEW,0.08,69.0,WeatherDisplay:10.37,2013-09-10 20:37:00,
2013-09-10 16:53:00,60.1,59.0,29.99,SE,142,0.0,0.0,96,0.00,OVC,FEW,0.08,67.0,WeatherDisplay:10.37,2013-09-10 20:53:00,
2013-09-10 17:17:00,60.3,59.2,29.99,SE,142,0.0,0.0,96,0.00,OVC,FEW,0.08,33.0,WeatherDisplay:10.37,2013-09-10 21:17:00,
2013-09-10 17:27:00,60.5,59.4,29.99,SE,142,0.0,0.0,96,0.00,OVC,FEW,0.08,19.0,WeatherDisplay:10.37,2013-09-10 21:27:00,
2013-09-10 17:42:00,60.3,59.2,29.99,SE,142,0.0,0.0,96,0.00,OVC,FEW,0.08,28.0,WeatherDisplay:10.37,2013-09-10 21:42:00,
2013-09-10 18:35:00,60.3,59.4,29.99,SE,142,0.0,0.0,97,0.00,OVC,FEW,0.08,0.0,WeatherDisplay:10.37,2013-09-10 22:35:00,
2013-09-10 18:47:00,60.1,59.2,29.99,SE,142,0.0,1.0,97,0.00,OVC,FEW,0.08,0.0,WeatherDisplay:10.37,2013-09-10 22:47:00,
2013-09-10 18:57:00,59.9,59.0,30.00,SE,142,0.0,1.0,97,0.00,OVC,FEW,0.08,0.0,WeatherDisplay:10.37,2013-09-10 22:57:00,
2013-09-10 19:07:00,59.9,59.0,30.00,SE,142,0.0,0.0,97,0.00,BKN,FEW,0.08,0.0,WeatherDisplay:10.37,2013-09-10 23:07:00,
2013-09-10 19:42:00,59.6,58.8,30.01,SE,142,0.0,2.0,97,0.02,RA,FEW,0.10,0.0,WeatherDisplay:10.37,2013-09-10 23:42:00,
2013-09-10 19:52:00,59.5,59.5,30.01,SE,141,0.0,0.0,100,0.00,BKN,FEW,0.10,0.0,WeatherDisplay:10.37,2013-09-10 23:52:00,
2013-09-10 20:07:00,59.4,59.4,30.01,SE,141,0.0,0.0,100,0.00,OVC,FEW,0.10,0.0,WeatherDisplay:10.37,2013-09-11 00:07:00,
2013-09-10 20:17:00,59.4,59.4,30.01,SE,141,0.0,0.0,100,0.00,OVC,FEW,0.10,0.0,WeatherDisplay:10.37,2013-09-11 00:17:00,
2013-09-10 20:22:00,59.4,59.4,30.01,SE,141,0.0,0.0,100,0.00,OVC,FEW,0.10,0.0,WeatherDisplay:10.37,2013-09-11 00:22:00,
2013-09-10 20:27:00,59.4,59.4,30.01,SE,141,0.0,0.0,100,0.00,OVC,FEW,0.10,0.0,WeatherDisplay:10.37,2013-09-11 00:27:00,
2013-09-10 20:37:00,59.4,59.4,30.01,SE,141,0.0,0.0,100,0.00,OVC,FEW,0.10,0.0,WeatherDisplay:10.37,2013-09-11 00:37:00,
2013-09-10 20:42:00,59.4,59.4,30.00,SE,141,0.0,0.0,100,0.00,OVC,FEW,0.10,0.0,WeatherDisplay:10.37,2013-09-11 00:42:00,
2013-09-10 20:52:00,59.4,59.4,30.00,SE,141,0.0,0.0,100,0.00,OVC,FEW,0.10,0.0,WeatherDisplay:10.37,2013-09-11 00:52:00,
2013-09-10 21:17:00,59.5,59.5,30.01,SE,141,0.0,1.0,100,0.00,OVC,FEW,0.10,0.0,WeatherDisplay:10.37,2013-09-11 01:17:00,
2013-09-10 21:22:00,59.5,59.5,30.01,SE,141,0.0,0.0,100,0.00,OVC,FEW,0.10,0.0,WeatherDisplay:10.37,2013-09-11 01:22:00,
2013-09-10 21:42:00,59.5,59.5,30.01,SE,141,0.0,1.0,100,0.00,OVC,FEW,0.10,0.0,WeatherDisplay:10.37,2013-09-11 01:42:00,
2013-09-10 22:17:00,59.7,59.7,30.01,SE,141,0.0,0.0,100,0.00,OVC,FEW,0.10,0.0,WeatherDisplay:10.37,2013-09-11 02:17:00,
2013-09-10 22:27:00,59.7,59.7,30.01,SE,141,0.0,0.0,100,0.00,OVC,FEW,0.10,0.0,WeatherDisplay:10.37,2013-09-11 02:27:00,
2013-09-10 22:32:00,59.8,59.8,30.01,SE,141,0.0,0.0,100,0.00,OVC,FEW,0.10,0.0,WeatherDisplay:10.37,2013-09-11 02:32:00,
2013-09-10 22:47:00,59.8,59.8,30.01,SE,141,0.0,0.0,100,0.00,OVC,FEW,0.10,0.0,WeatherDisplay:10.37,2013-09-11 02:47:00,
2013-09-10 23:17:00,60.0,60.0,30.00,SE,141,0.0,0.0,100,0.00,OVC,FEW,0.10,0.0,WeatherDisplay:10.37,2013-09-11 03:17:00,
2013-09-10 23:32:00,60.2,60.2,30.00,SE,141,0.0,0.0,100,0.00,OVC,FEW,0.10,0.0,WeatherDisplay:10.37,2013-09-11 03:32:00,
2013-09-10 23:37:00,60.2,60.2,30.00,SE,141,0.0,0.0,100,0.00,OVC,FEW,0.10,0.0,WeatherDisplay:10.37,2013-09-11 03:37:00,
2013-09-10 23:47:00,60.2,60.2,29.99,SE,141,0.0,0.0,100,0.00,OVC,FEW,0.10,0.0,WeatherDisplay:10.37,2013-09-11 03:47:00,
2013-09-10 23:52:00,60.2,60.2,30.00,SE,141,0.0,0.0,100,0.00,OVC,FEW,0.10,0.0,WeatherDisplay:10.37,2013-09-11 03:52:00,
2013-09-10 23:57:00,60.2,60.2,29.99,SE,141,0.0,0.0,100,0.00,OVC,FEW,0.10,0.0,WeatherDisplay:10.37,2013-09-11 03:57:00,